GW2068 Weather Reports


time (UTC)temp
C
wind
direction
speed
KPH
gust
KPH
rain 1hr
cm
rain 24hr
cm
rain mn
cm
humidity
%
barometer
mb
20260508110020 6 292 0.0 0.0 0.00 0.76 0.00 92 1020.1
20260508105022 5 292 0.0 0.0 0.00 0.76 0.00 93 1019.7
20260508102119 5 292 0.0 0.0 0.00 0.76 0.00 93 1019.5
20260508101139 5 292 0.0 0.0 0.00 0.76 0.00 93 1019.4
20260508100221 5 292 0.0 0.0 0.00 0.76 0.00 93 1019.3
20260508100138 5 292 0.0 0.0 0.00 0.76 0.00 92 1019.2
20260508095220 5 292 0.0 0.0 0.00 0.76 0.00 93 1019.1
20260508094221 6 292 0.0 0.0 0.00 0.76 0.00 93 1019.0
20260508093220 6 292 0.0 0.0 0.00 0.76 0.00 93 1018.9
20260508091220 6 292 0.0 0.0 0.00 0.76 0.00 92 1018.8
20260508090221 7 292 0.0 0.0 0.00 0.76 0.00 93 1018.9
20260508085319 7 292 0.0 0.0 0.00 0.76 0.00 93 1018.9
20260508084323 6 292 0.0 0.0 0.00 0.76 0.00 93 1018.7
20260508084221 6 292 0.0 0.0 0.00 0.76 0.00 93 1018.7
20260508082221 7 292 0.0 0.0 0.00 0.76 0.00 93 1018.6
20260508080320 7 292 0.0 0.0 0.00 0.76 0.00 93 1018.4
20260508075419 7 292 0.0 0.0 0.00 0.76 0.00 93 1018.4
20260508074420 7 292 0.0 0.0 0.00 0.76 0.00 93 1018.3
20260508074322 7 292 0.0 0.0 0.00 0.76 0.00 93 1018.3
20260508073420 7 292 0.0 0.0 0.00 0.76 0.00 92 1018.3
20260508072437 8 292 0.0 0.0 0.00 0.76 0.00 92 1018.4
20260508071519 8 292 0.0 0.0 0.00 0.76 0.00 94 1018.2
20260508070521 8 360 0.0 0.0 0.00 0.76 0.00 94 1018.2
20260508065521 8 360 0.0 0.0 0.00 0.76 0.00 94 1018.2
20260508064619 8 360 0.0 0.0 0.00 0.76 0.00 94 1018.0
20260508063622 8 360 0.0 0.0 0.00 0.76 0.00 93 1018.0
20260508062621 7 355 1.6 3.2 0.00 0.76 0.00 93 1017.9
20260508061620 7 225 0.0 0.0 0.00 0.76 0.00 94 1018.0
20260508060621 8 225 0.0 0.0 0.00 0.76 0.00 94 1018.0
20260508055620 8 225 0.0 0.0 0.00 0.76 0.00 94 1018.2
20260508054636 8 225 0.0 0.0 0.00 0.79 0.00 94 1018.1
20260508053722 8 225 0.0 0.0 0.00 0.79 0.00 94 1018.1
20260508051819 8 225 0.0 0.0 0.00 0.79 0.00 93 1018.0
20260508050818 9 225 0.0 0.0 0.00 0.79 0.00 93 1018.0
20260508045822 9 225 0.0 0.0 0.00 0.81 0.00 92 1018.0
20260508045736 9 225 0.0 0.0 0.00 0.81 0.00 93 1018.0
20260508044821 9 225 0.0 0.0 0.00 0.84 0.00 94 1017.7
20260508043820 10 225 0.0 0.0 0.00 0.84 0.00 94 1017.9
20260508042821 10 292 0.0 0.0 0.00 0.84 0.00 94 1017.8
20260508041819 10 292 0.0 0.0 0.00 0.84 0.00 94 1017.6
20260508035832 10 292 0.0 0.0 0.00 0.84 0.84 94 1017.6
20260508034830 10 292 0.0 0.0 0.00 0.84 0.84 92 1017.6
20260508033833 10 292 0.0 0.0 0.00 0.84 0.84 92 1017.5
20260508031931 10 292 0.0 0.0 0.00 0.86 0.84 92 1017.5
20260508030930 11 292 0.0 0.0 0.00 0.89 0.84 93 1017.5
20260508025933 10 292 0.0 0.0 0.00 0.91 0.84 93 1017.3
20260508024933 11 292 0.0 0.0 0.00 0.91 0.84 93 1017.0
20260508023931 11 292 0.0 0.0 0.00 0.94 0.84 93 1017.2
20260508022931 11 292 0.0 0.0 0.00 0.97 0.84 93 1017.2
20260508021029 11 292 0.0 0.0 0.00 0.99 0.84 93 1016.6
20260508020030 12 292 0.0 0.0 0.00 0.99 0.84 93 1016.7
20260508015030 12 45 0.0 0.0 0.00 1.02 0.84 92 1016.5
20260508014030 12 45 0.0 0.0 0.00 1.02 0.84 91 1016.3
20260508013031 12 45 0.0 0.0 0.00 1.02 0.84 91 1016.0
20260508012048 12 45 0.0 0.0 0.00 1.02 0.84 89 1015.7
20260508011130 12 45 0.0 0.0 0.00 1.04 0.84 90 1015.6
20260508010131 12 45 0.0 0.0 0.00 1.07 0.84 90 1015.5
20260508005146 12 45 0.0 0.0 0.00 1.07 0.84 90 1015.3
20260508004131 13 45 0.0 0.0 0.00 1.07 0.84 88 1015.3
20260508003130 13 45 0.0 0.0 0.00 1.09 0.84 89 1015.2
20260508002131 13 45 1.6 4.8 0.00 1.09 0.84 87 1015.1
20260508001131 13 16 1.6 3.2 0.00 1.09 0.84 88 1015.2
20260507234130 14 41 1.6 4.8 0.00 1.09 0.84 87 1015.3
20260507233146 14 14 3.2 6.4 0.00 1.09 0.84 86 1015.0
20260507232230 14 19 3.2 6.4 0.00 1.09 0.84 87 1014.8
20260507231231 15 12 3.2 6.4 0.00 1.09 0.84 87 1014.6
20260507230330 15 4 1.6 4.8 0.00 1.09 0.84 87 1014.5
20260507225331 15 23 1.6 4.8 0.00 1.09 0.84 87 1014.4
20260507225246 15 46 4.8 9.7 0.00 1.09 0.84 87 1014.3
20260507224245 15 35 3.2 8.0 0.00 1.09 0.84 88 1014.1
20260507222232 14 34 4.8 9.7 0.00 1.09 0.84 87 1013.5
20260507220232 15 34 11.3 16.1 0.00 1.09 0.84 89 1013.4
20260507214331 14 42 3.2 9.7 0.00 1.09 0.84 88 1013.6
20260507213333 14 1 4.8 9.7 0.00 1.09 0.84 89 1013.3
20260507212345 14 29 8.0 11.3 0.00 1.09 0.84 90 1013.2
20260507211431 14 24 4.8 11.3 0.00 1.09 0.84 89 1013.3
20260507210531 15 43 8.0 16.1 0.00 1.09 0.84 89 1013.1
20260507205630 15 20 6.4 9.7 0.00 1.09 0.84 89 1012.9
20260507204630 15 6 8.0 12.9 0.00 1.09 0.84 89 1012.8
20260507203630 15 26 9.7 14.5 0.03 1.09 0.84 89 1013.1
20260507202631 15 7 3.2 8.0 0.13 1.09 0.84 91 1013.2
20260507201630 15 35 9.7 14.5 0.23 1.09 0.84 91 1012.9
20260507200630 15 38 8.0 14.5 0.23 1.09 0.84 90 1012.8
20260507194730 15 19 11.3 19.3 0.23 1.09 0.84 88 1013.0
20260507192730 17 2 12.9 19.3 0.13 0.99 0.71 78 1013.5
20260507191733 18 7 9.7 17.7 0.00 0.86 0.61 76 1011.9
20260507185730 20 10 9.7 14.5 0.00 0.86 0.61 77 1011.5
20260507184729 20 30 4.8 9.7 0.00 0.86 0.61 75 1011.9
20260507183730 21 5 4.8 11.3 0.00 0.86 0.61 74 1012.2
20260507182729 21 46 9.7 12.9 0.00 0.86 0.61 71 1012.2
20260507181730 23 29 6.4 11.3 0.00 0.86 0.61 70 1012.1
20260507180730 22 28 6.4 14.5 0.00 0.86 0.61 72 1012.2
20260507175830 22 135 3.2 8.0 0.00 0.86 0.61 74 1012.1
20260507174829 21 202 1.6 4.8 0.00 0.86 0.61 74 1012.2
20260507173829 21 184 4.8 8.0 0.00 0.86 0.61 73 1012.1
20260507171829 22 190 4.8 8.0 0.00 0.86 0.61 73 1012.6
20260507170847 23 315 1.6 4.8 0.00 0.86 0.61 72 1012.8
20260507165829 22 341 1.6 3.2 0.00 0.89 0.61 75 1012.8
20260507164830 22 292 0.0 0.0 0.00 0.89 0.61 78 1012.9
20260507163830 21 28 0.0 3.2 0.00 0.89 0.61 79 1012.9
20260507162828 21 337 0.0 1.6 0.00 0.89 0.61 79 1012.9
20260507162729 21 6 0.0 1.6 0.00 0.89 0.61 79 1012.9
20260507161730 21 337 3.2 4.8 0.00 0.89 0.61 81 1012.7
20260507160730 20 9 3.2 4.8 0.00 0.89 0.61 86 1012.5
20260507155829 20 22 0.0 1.6 0.00 0.89 0.61 88 1012.5
20260507154828 19 202 1.6 3.2 0.00 0.89 0.61 90 1012.8
20260507153830 18 180 0.0 0.0 0.00 0.89 0.61 90 1013.1
20260507151945 18 270 0.0 0.0 0.00 0.89 0.61 92 1013.3
20260507151030 18 202 0.0 1.6 0.00 0.89 0.61 92 1013.7
20260507144929 17 206 4.8 6.4 0.03 0.89 0.61 93 1013.7
20260507143929 17 180 1.6 4.8 0.03 0.89 0.61 94 1013.8
20260507142930 17 189 3.2 4.8 0.03 0.89 0.61 94 1013.5
20260507141929 17 225 0.0 0.0 0.03 0.89 0.61 95 1013.3
20260507140945 17 193 3.2 6.4 0.05 0.89 0.61 95 1013.5
20260507135930 17 180 0.0 3.2 0.08 0.86 0.58 95 1013.2
20260507134930 17 360 0.0 0.0 0.15 0.86 0.58 95 1013.4
20260507133929 17 22 0.0 3.2 0.25 0.86 0.58 95 1013.4
20260507132931 17 247 0.0 0.0 0.30 0.86 0.58 95 1013.3
20260507131930 17 180 0.0 0.0 0.41 0.86 0.58 95 1013.0
20260507130929 17 180 0.0 0.0 0.43 0.84 0.56 95 1012.9
20260507125028 17 270 0.0 0.0 0.36 0.71 0.43 94 1013.8
20260507124046 17 270 0.0 0.0 0.28 0.64 0.33 94 1014.3
20260507123127 17 268 0.0 3.2 0.20 0.56 0.28 94 1014.6
20260507122130 17 248 0.0 3.2 0.13 0.48 0.20 95 1014.9
20260507121130 17 202 1.6 4.8 0.05 0.41 0.13 95 1014.8
20260507120129 17 202 1.6 4.8 0.03 0.38 0.10 95 1014.4
20260507114128 16 225 0.0 0.0 0.03 0.38 0.08 95 1014.2
20260507112130 17 202 1.6 3.2 0.00 0.36 0.08 95 1014.1
20260507110146 16 202 0.0 0.0 0.00 0.36 0.08 95 1014.0